[[{"header":{"parameterUnit":"m.s-1","parameterCategory":1,"la1":30.2991,"la2":30.254,"lo1":-89.0895,"lo2":-89.0444,"dy":0.0017,"dx":0.0017,"nx":28,"ny":28,"refTime":"2024-03-21T09:00:00:Z","depth":0,"parameterNumber":2,"parameterNumberName":"U-component_of_WINDS"},"data":[0,0,0,0,0,0,0,0,0,0,0,0,0,0,0,0,0,0,0,0,0,0,0,0,0,0,0,0,0,0,0,0,0,0,0,0,0,0,0,0,0,0,0,0,0,0,0,0,0,0,0,0,0,0,0,0,0,0,-1.235,-1.235,0,-1.2395,-1.2396,-1.2397,-1.2383,-1.2382,-1.2381,-1.238,-1.2428,-1.243,-1.2433,0,0,0,0,0,0,0,0,0,0,0,0,0,-1.2251,-1.2253,-1.235,-1.235,-1.2351,-1.2395,-1.2396,-1.2397,-1.2383,-1.2382,-1.2381,-1.2379,-1.2428,-1.243,-1.2433,0,0,0,0,0,0,0,0,0,0,0,0,0,-1.2295,-1.2253,-1.235,-1.2349,-1.235,-1.2395,-1.2396,-1.2397,-1.2383,-1.2382,-1.238,-1.2379,-1.2427,-1.243,-1.2433,-1.2482,0,0,-1.2443,-1.2445,0,0,0,0,0,0,0,0,-1.2293,-1.2299,-1.2349,-1.2349,-1.235,-1.2382,-1.2379,-1.2426,-1.2384,-1.2371,-1.238,-1.2378,-1.2414,-1.2418,-1.243,-1.2485,-1.2487,-1.2443,-1.2445,-1.2447,-1.2448,0,0,0,0,0,0,0,-1.229,-1.2297,-1.2368,-1.235,-1.235,-1.2347,-1.2352,-1.2388,-1.24,-1.2372,-1.2371,-1.2376,-1.2414,-1.2427,-1.2431,-1.2487,-1.2443,-1.2446,-1.2448,-1.245,-1.2583,-1.2584,0,0,0,0,0,0,-1.2286,-1.2294,-1.2366,-1.2369,-1.2317,-1.235,-1.2355,-1.2373,-1.2399,-1.2402,-1.2377,-1.2375,-1.2422,-1.2427,-1.2433,-1.2491,-1.2447,-1.245,-1.2452,-1.2581,-1.2583,-1.2585,0,0,0,0,0,0,-1.2284,-1.2292,-1.2365,-1.2331,-1.234,-1.2353,-1.2373,-1.2375,-1.2388,-1.2404,-1.2406,-1.2388,-1.2421,-1.2428,-1.247,-1.2492,-1.2451,-1.2454,-1.2579,-1.2582,-1.2584,-1.2608,0,0,0,0,0,0,-1.2281,-1.2292,-1.2311,-1.2332,-1.2342,-1.24,-1.2375,-1.2377,-1.2393,-1.2391,-1.2415,-1.2417,-1.2421,-1.2465,-1.2473,-1.2496,-1.2457,-1.2577,-1.258,-1.2583,-1.2605,-1.2611,-1.2616,0,0,0,0,0,-1.2278,-1.2316,-1.2312,-1.232,-1.2366,-1.2402,-1.2408,-1.241,-1.2395,-1.2414,-1.2424,-1.2416,-1.2489,-1.2469,-1.2478,-1.2503,-1.2576,-1.2579,-1.2583,-1.2603,-1.261,-1.2616,0,0,0,0,0,0,-1.2298,-1.2319,-1.2314,-1.2361,-1.2379,-1.2399,-1.2423,-1.2418,-1.2442,-1.2439,-1.2442,-1.2447,-1.2489,-1.25,-1.2478,-1.2551,-1.253,-1.2536,-1.2542,-1.2549,-1.2554,-1.255,-1.246,0,0,0,0,0,-1.2308,-1.2335,-1.2352,-1.2392,-1.2401,-1.2411,-1.2426,-1.2427,-1.2447,-1.2455,-1.2468,-1.2488,-1.2515,-1.2532,-1.2558,-1.2607,-1.2611,-1.2628,-1.2633,-1.2638,-1.2642,-1.2667,-1.2675,-1.2596,-1.2596,-1.2596,0,0,-1.2329,-1.2343,-1.2361,-1.2396,-1.241,-1.2438,-1.2417,-1.2448,-1.2469,-1.2459,-1.2499,-1.2509,-1.2531,-1.2576,-1.2597,-1.2587,-1.2665,-1.2642,-1.2645,-1.2648,-1.2672,-1.2679,-1.2686,-1.2599,-1.2598,-1.2598,0,0,-1.238,-1.2395,-1.2428,-1.2443,-1.2465,-1.2471,-1.2479,-1.25,-1.2506,-1.2545,-1.2538,-1.2563,-1.261,-1.2625,-1.264,-1.2696,-1.2689,-1.2705,-1.2732,-1.2756,-1.2762,-1.2768,-1.2787,-1.2794,-1.2709,-1.2709,-1.2709,0,-1.2403,-1.2445,-1.2447,-1.2477,-1.2493,-1.2485,-1.2519,-1.2533,-1.2563,-1.2574,-1.2562,-1.2619,-1.2634,-1.2681,-1.2695,-1.2707,-1.2716,-1.2702,-1.2761,-1.2767,-1.2772,-1.279,-1.2797,-1.2711,-1.2711,-1.271,-1.271,0,-1.2472,-1.25,-1.2525,-1.2553,-1.2571,-1.2603,-1.261,-1.2628,-1.2627,-1.2634,-1.2674,-1.2691,-1.2719,-1.2731,-1.273,-1.2778,-1.2771,-1.276,-1.2739,-1.2781,-1.2798,-1.2805,-1.2713,-1.2713,-1.2712,-1.2712,0,0,-1.2538,-1.2565,-1.2574,-1.2586,-1.2609,-1.2631,-1.2663,-1.269,-1.2705,-1.2726,-1.2752,-1.2791,-1.2781,-1.2797,-1.2798,-1.282,-1.2862,-1.2806,-1.2807,-1.2815,-1.2914,-1.2921,-1.2929,-1.2858,-1.2859,-1.286,-1.2912,0,-1.2591,-1.2646,-1.2648,-1.2698,-1.2724,-1.2716,-1.2744,-1.2761,-1.2768,-1.2791,-1.28,-1.2827,-1.2812,-1.2822,-1.2843,-1.2852,-1.2882,-1.2849,-1.2882,-1.2883,-1.2875,-1.2938,-1.2946,-1.2994,-1.2918,-1.292,-1.292,0,-1.266,-1.2681,-1.2734,-1.2752,-1.2763,-1.2787,-1.2811,-1.2834,-1.2853,-1.2857,-1.2874,-1.2872,-1.2904,-1.2882,-1.2926,-1.2903,-1.2917,-1.2924,-1.2926,-1.2928,-1.2904,-1.2941,-1.3009,-1.3016,-1.2931,-1.293,-1.293,0,-1.2701,-1.2743,-1.278,-1.279,-1.2813,-1.283,-1.284,-1.2858,-1.2873,-1.2895,-1.2905,-1.293,-1.2944,-1.2963,-1.2968,-1.2952,-1.3011,-1.299,-1.3015,-1.3014,-1.3027,-1.3026,-1.3097,-1.3038,-1.3037,-1.3037,-1.3037,0,-1.2759,-1.2791,-1.2798,-1.2821,-1.2856,-1.2858,-1.2893,-1.2902,-1.2918,-1.2942,-1.2937,-1.296,-1.2965,-1.2988,-1.2992,-1.3027,-1.3033,-1.3037,-1.3037,-1.3037,-1.3036,-1.3045,-1.3042,-1.3039,-1.3039,-1.3038,-1.3038,0,-1.2811,-1.2817,-1.2856,-1.2874,-1.2879,-1.2904,-1.2919,-1.294,-1.2947,-1.2977,-1.2984,-1.2995,-1.3022,-1.3028,-1.3061,-1.3063,-1.3104,-1.3102,-1.3098,-1.3097,-1.3121,-1.3118,-1.3199,-1.3209,-1.3145,-1.3145,-1.3146,0,-1.2847,-1.2872,-1.2891,-1.2907,-1.2917,-1.2942,-1.2958,-1.2961,-1.2977,-1.3,-1.3018,-1.3045,-1.3066,-1.311,-1.312,-1.3145,-1.3143,-1.3169,-1.3146,-1.3145,-1.3142,-1.314,-1.3141,-1.3174,-1.3174,-1.3175,-1.3175,0,-1.291,-1.2912,-1.2934,-1.2958,-1.2976,-1.2995,-1.3013,-1.3025,-1.3031,-1.3049,-1.3077,-1.3093,-1.3126,-1.3152,-1.3176,-1.3187,-1.3182,-1.3183,-1.3189,-1.3188,-1.3184,-1.3185,-1.3108,-1.3181,-1.318,-1.318,-1.3179,-1.3179,-1.2955,-1.2975,-1.2992,-1.3017,-1.303,-1.3047,-1.3067,-1.3076,-1.3098,-1.3125,-1.3125,-1.3155,-1.3172,-1.3204,-1.3216,-1.3239,-1.3231,-1.3241,-1.3244,-1.3246,-1.3247,-1.3181,-1.3244,-1.3244,-1.3244,-1.3244,-1.3244,0,-1.3017,-1.3027,-1.3049,-1.3074,-1.3093,-1.3086,-1.3105,-1.3122,-1.3148,-1.3164,-1.3185,-1.3216,-1.3241,-1.3253,-1.3277,-1.3293,-1.3291,-1.3299,-1.3298,-1.33,-1.3254,-1.3245,-1.33,-1.33,-1.33,-1.33,-1.33,-1.33,-1.3051,-1.3085,-1.3088,-1.3129,-1.3139,-1.3167,-1.3178,-1.3193,-1.3206,-1.324,-1.3261,-1.3268,-1.3283,-1.3308,-1.3331,-1.3334,-1.3342,-1.3351,-1.3353,-1.3309,-1.3304,-1.3298,-1.3289,-1.3354,-1.3354,-1.3397,-1.3397,-1.3398]},{"header":{"parameterUnit":"m.s-1","parameterCategory":1,"la1":30.2991,"la2":30.254,"lo1":-89.0895,"lo2":-89.0444,"dy":0.0017,"dx":0.0017,"nx":28,"ny":28,"refTime":"2024-03-21T09:00:00:Z","depth":0,"parameterNumber":3,"parameterNumberName":"V-component_of_WINDS"},"data":[0,0,0,0,0,0,0,0,0,0,0,0,0,0,0,0,0,0,0,0,0,0,0,0,0,0,0,0,0,0,0,0,0,0,0,0,0,0,0,0,0,0,0,0,0,0,0,0,0,0,0,0,0,0,0,0,0,0,-1.4521,-1.4521,0,-1.4544,-1.4544,-1.4544,-1.4527,-1.4526,-1.4525,-1.4525,-1.4548,-1.4549,-1.4551,0,0,0,0,0,0,0,0,0,0,0,0,0,-1.4462,-1.4463,-1.4521,-1.4521,-1.4521,-1.4544,-1.4544,-1.4544,-1.4527,-1.4526,-1.4525,-1.4524,-1.4548,-1.4549,-1.4551,0,0,0,0,0,0,0,0,0,0,0,0,0,-1.4486,-1.4463,-1.4521,-1.4515,-1.4515,-1.4543,-1.4544,-1.4544,-1.4527,-1.4526,-1.4525,-1.4524,-1.4547,-1.4549,-1.4551,-1.4586,0,0,-1.4557,-1.4558,0,0,0,0,0,0,0,0,-1.4485,-1.4488,-1.4516,-1.4516,-1.4516,-1.4531,-1.4532,-1.4558,-1.4528,-1.4523,-1.4525,-1.4523,-1.4543,-1.4546,-1.4552,-1.4587,-1.4588,-1.4557,-1.4558,-1.4559,-1.456,0,0,0,0,0,0,0,-1.4483,-1.4487,-1.453,-1.4516,-1.4516,-1.4512,-1.4514,-1.4536,-1.4539,-1.4523,-1.4522,-1.4525,-1.4543,-1.455,-1.4553,-1.4588,-1.4557,-1.4559,-1.456,-1.4561,-1.4651,-1.4652,0,0,0,0,0,0,-1.4482,-1.4486,-1.4529,-1.453,-1.4497,-1.4514,-1.4516,-1.4527,-1.4539,-1.4539,-1.4526,-1.4524,-1.4548,-1.455,-1.4554,-1.4594,-1.4559,-1.4561,-1.4562,-1.465,-1.4651,-1.4653,0,0,0,0,0,0,-1.4481,-1.4486,-1.4528,-1.4508,-1.4513,-1.4516,-1.4529,-1.4528,-1.4536,-1.4541,-1.4541,-1.4533,-1.4547,-1.4551,-1.4578,-1.4595,-1.4562,-1.4564,-1.4648,-1.465,-1.4652,-1.4676,0,0,0,0,0,0,-1.4479,-1.4486,-1.4499,-1.4508,-1.4514,-1.4552,-1.453,-1.453,-1.4539,-1.4537,-1.4548,-1.4548,-1.4546,-1.4575,-1.458,-1.4597,-1.4565,-1.4647,-1.4649,-1.4651,-1.4674,-1.4679,-1.4683,0,0,0,0,0,-1.4477,-1.4505,-1.45,-1.4505,-1.4531,-1.4553,-1.4556,-1.4554,-1.4541,-1.4554,-1.4557,-1.4548,-1.4592,-1.4578,-1.4583,-1.4601,-1.4646,-1.4649,-1.4651,-1.4672,-1.4678,-1.4683,0,0,0,0,0,0,-1.4498,-1.4506,-1.45,-1.4532,-1.4542,-1.455,-1.4567,-1.456,-1.4574,-1.4571,-1.4567,-1.4569,-1.4597,-1.4602,-1.4586,-1.4635,-1.4617,-1.4621,-1.4631,-1.4636,-1.4641,-1.4639,-1.4567,0,0,0,0,0,-1.4506,-1.4524,-1.453,-1.4557,-1.4563,-1.4564,-1.4574,-1.4571,-1.458,-1.4585,-1.459,-1.46,-1.4615,-1.4626,-1.4641,-1.4674,-1.4676,-1.469,-1.4694,-1.4698,-1.4701,-1.4718,-1.4724,-1.4662,-1.4662,-1.4661,0,0,-1.4523,-1.453,-1.4541,-1.4562,-1.4569,-1.4587,-1.4568,-1.4588,-1.4601,-1.4588,-1.4613,-1.4617,-1.4628,-1.4658,-1.4671,-1.4662,-1.4718,-1.4701,-1.4704,-1.4705,-1.4721,-1.4727,-1.4733,-1.4663,-1.4663,-1.4663,0,0,-1.4564,-1.4571,-1.4594,-1.4602,-1.4613,-1.4614,-1.4619,-1.4628,-1.463,-1.4656,-1.4646,-1.4662,-1.469,-1.4698,-1.4705,-1.4748,-1.474,-1.4753,-1.4776,-1.4793,-1.4798,-1.4802,-1.4817,-1.4822,-1.4756,-1.4757,-1.4757,0,-1.4584,-1.4611,-1.4607,-1.4628,-1.4637,-1.4626,-1.4649,-1.4656,-1.4672,-1.4678,-1.4668,-1.4702,-1.4709,-1.474,-1.4751,-1.4757,-1.4763,-1.4752,-1.4797,-1.4802,-1.4806,-1.482,-1.4825,-1.4758,-1.4758,-1.4758,-1.4758,0,-1.4635,-1.4653,-1.4671,-1.4686,-1.4697,-1.4719,-1.4718,-1.473,-1.4726,-1.4727,-1.4753,-1.476,-1.4776,-1.4783,-1.478,-1.4814,-1.4808,-1.4798,-1.478,-1.4813,-1.4826,-1.4831,-1.476,-1.476,-1.4759,-1.4759,0,0,-1.4689,-1.4702,-1.4708,-1.4714,-1.4726,-1.474,-1.4761,-1.4777,-1.4786,-1.4797,-1.4814,-1.4838,-1.4828,-1.4837,-1.4834,-1.4849,-1.4881,-1.4836,-1.4837,-1.4844,-1.4919,-1.4926,-1.4933,-1.4876,-1.4877,-1.4878,-1.4918,0,-1.473,-1.4767,-1.4764,-1.4798,-1.4815,-1.4805,-1.4823,-1.4832,-1.4833,-1.4848,-1.485,-1.4866,-1.4853,-1.4858,-1.4872,-1.4874,-1.4896,-1.4872,-1.4892,-1.4892,-1.4889,-1.494,-1.4948,-1.4985,-1.4923,-1.4924,-1.4924,0,-1.4782,-1.4795,-1.4831,-1.4839,-1.4846,-1.4863,-1.4876,-1.489,-1.49,-1.49,-1.4909,-1.4904,-1.4925,-1.4906,-1.4934,-1.4918,-1.4926,-1.4928,-1.4929,-1.4931,-1.491,-1.4942,-1.4997,-1.5002,-1.4933,-1.4932,-1.4931,0,-1.4818,-1.4844,-1.4868,-1.4874,-1.4884,-1.4896,-1.4901,-1.4909,-1.4919,-1.4931,-1.4936,-1.4951,-1.4959,-1.497,-1.4968,-1.4955,-1.4996,-1.4978,-1.4997,-1.4997,-1.5006,-1.5005,-1.5062,-1.5012,-1.5012,-1.5012,-1.5012,0,-1.4863,-1.4886,-1.4884,-1.49,-1.4924,-1.4921,-1.4945,-1.4948,-1.4956,-1.4971,-1.4963,-1.4978,-1.4975,-1.4989,-1.4988,-1.5011,-1.5015,-1.5015,-1.5015,-1.5016,-1.5016,-1.5021,-1.5018,-1.5013,-1.5013,-1.5012,-1.5012,0,-1.4907,-1.4907,-1.4933,-1.4941,-1.4943,-1.4961,-1.4967,-1.4981,-1.4982,-1.5002,-1.5006,-1.5008,-1.5024,-1.5023,-1.5042,-1.5041,-1.507,-1.5066,-1.5067,-1.5066,-1.5085,-1.5083,-1.5147,-1.5154,-1.5099,-1.51,-1.51,0,-1.4936,-1.4953,-1.4962,-1.4971,-1.4977,-1.4993,-1.5002,-1.4999,-1.5009,-1.5021,-1.5033,-1.5049,-1.5062,-1.5088,-1.5091,-1.5105,-1.5102,-1.5123,-1.5104,-1.5104,-1.5101,-1.51,-1.5102,-1.5127,-1.5127,-1.5128,-1.5128,0,-1.4987,-1.4986,-1.5,-1.5014,-1.5025,-1.5036,-1.5046,-1.5054,-1.5052,-1.5064,-1.508,-1.509,-1.5109,-1.5124,-1.5138,-1.5142,-1.5135,-1.5134,-1.5139,-1.5141,-1.514,-1.514,-1.5077,-1.5133,-1.5133,-1.5132,-1.5132,-1.5132,-1.5024,-1.5038,-1.5046,-1.5062,-1.5069,-1.5078,-1.5092,-1.5094,-1.5108,-1.5123,-1.5121,-1.5139,-1.5147,-1.5165,-1.517,-1.5185,-1.5177,-1.5185,-1.5186,-1.5188,-1.519,-1.5138,-1.5187,-1.5187,-1.5187,-1.5187,-1.5187,0,-1.5074,-1.5078,-1.5093,-1.5107,-1.5119,-1.5111,-1.5121,-1.5132,-1.5148,-1.5157,-1.5169,-1.5188,-1.5203,-1.5206,-1.522,-1.5231,-1.5228,-1.5235,-1.5234,-1.5235,-1.5196,-1.519,-1.5237,-1.5237,-1.5237,-1.5237,-1.5237,-1.5237,-1.5101,-1.5125,-1.5125,-1.5151,-1.5156,-1.5174,-1.5181,-1.5189,-1.5195,-1.5217,-1.5229,-1.5232,-1.5238,-1.5252,-1.5265,-1.5266,-1.5272,-1.528,-1.5279,-1.5243,-1.5238,-1.5233,-1.5227,-1.5281,-1.5281,-1.5316,-1.5317,-1.5317]}]]